Find Starlink 2381

NORAD ID: 47800 Int'l Des: 2021-018 Owner: SPXS Country: US Constellation: starlink operational
LEOCIRCULARSTARLINK_TYPE

現在のビュー

3D地球を読み込み中...

About Starlink 2381

Starlink 2381 (NORAD 47800) is a starlink constellation satellite (v1.0) launched Mar 11, 2021 by SPXS of US. It operates in LEO, CIRCULAR, STARLINK_TYPE orbit with a mass of 260.00 kg.

次回通過

Passes for default location (London). Set your location on the main map for personalized predictions.

高度履歴

Loading altitude history...

軌道要素

1 47800U 21018P 26265.66864914 .00007556 00000-0 25499-3 0 9991
2 47800 53.1585 42.3483 0001225 91.7903 268.3239 15.31699834306945
Epoch: Sep 22, 2026 • Age: 16 hours

現在のステータス

高度 472.2 km
遠地点 / 近地点 N/A
速度 7.63 km/s
衛星直下点 32.45°N, 64.11°E
打ち上げ日 Mar 11, 2021
運用期間 5.5 years
タイプ internet

技術仕様

分類 Payload
質量 260.00 kg
乾燥質量 248.00 kg
長さ 0.20 m
スパン 9.00 m
形状 ? Box + pan
製造者 SPXS
バスタイプ Starlink
フェーズステータス In Orbit
所有者/国 SPXS/US

Most Searched